Lapse_Rate
4.4 4.0 3.4 3.1 2.5 2.2 2.8 3.7 4.7 5.2 5.2 5.3 5.0 4.8 4.8 4.8 4.8 4.9 4.9 5.0 5.0 4.9 4.8 4.7 4.1 4.4 4.5
4.3 3.9 3.3 2.8 2.7 3.5 4.2 4.8 5.2 5.3 4.9 5.1 5.0 4.8 4.7 4.6 4.7 4.8 5.0 5.0 5.0 4.8 4.8 4.7 4.5 4.1 4.2
3.6 3.2 3.3 3.4 4.0 4.2 4.8 5.1 5.2 5.0 4.8 5.0 4.9 4.9 4.8 4.7 4.6 4.6 4.6 4.8 4.8 4.8 4.9 5.0 4.9 4.8 4.4
2.6 3.2 3.8 4.1 4.4 4.7 4.9 5.2 5.2 5.4 4.9 5.3 5.4 5.1 5.2 4.8 4.7 4.6 4.7 4.6 4.6 4.7 4.8 4.9 5.0 5.0 5.0
3.0 3.7 4.1 4.6 4.7 4.8 4.8 5.1 5.7 5.3 5.2 5.7 5.0 5.0 5.1 4.8 4.5 4.8 4.8 4.8 5.0 5.2 5.4 5.5 5.6 5.4 5.2
3.7 4.1 4.2 4.4 4.5 4.7 4.7 5.0 6.0 5.6 4.4 6.2 4.7 5.3 4.9 4.8 4.5 5.0 5.1 5.4 5.7 5.8 5.9 6.0 6.1 5.9 5.8
4.1 4.1 4.0 4.2 4.2 4.9 5.0 4.8 5.1 4.8 3.6 5.8 4.8 5.3 5.0 4.6 4.3 5.1 5.3 5.7 5.8 5.9 6.0 6.1 6.3 6.4 6.2
4.2 4.0 3.8 3.8 3.7 3.8 4.1 4.8 5.4 5.0 3.5 4.9 5.1 5.4 5.8 4.9 4.6 5.0 5.3 5.7 6.1 6.0 6.0 5.8 5.7 5.8 6.0
4.2 4.1 4.1 3.9 3.6 3.7 4.1 4.2 5.1 5.8 4.6 5.1 5.5 5.6 6.3 5.7 5.5 5.6 5.9 6.1 6.0 6.0 6.1 6.1 6.1 6.0 6.0
4.7 4.4 4.4 4.4 4.1 4.0 4.2 4.5 4.9 6.0 5.0 5.7 6.0 5.1 6.9 6.6 6.1 5.8 6.4 6.3 6.1 6.1 6.2 6.3 6.2 6.3 6.3
4.7 4.6 4.6 4.5 4.4 4.5 4.5 4.7 5.1 5.2 4.9 5.2 6.0 5.7 5.3 6.1 6.9 6.2 6.3 6.0 6.1 6.5 6.4 6.3 6.3 6.2 5.9
4.7 4.6 4.7 4.8 4.8 5.0 5.2 5.1 5.2 5.1 5.2 5.1 5.6 5.5 5.6 5.7 5.8 6.2 6.6 5.8 6.1 6.9 7.0 7.0 6.8 6.4 6.1
4.6 4.7 4.8 4.9 5.1 5.5 5.7 5.6 5.7 5.3 5.2 5.4 5.5 5.6 5.3 5.4 5.6 6.0 5.5 6.3 6.7 6.8 6.8 6.7 6.4 6.1 5.7
4.9 5.1 5.2 5.4 5.5 5.7 6.0 6.0 6.0 6.1 5.5 5.6 5.6 5.5 5.7 5.3 5.5 5.7 5.6 5.9 6.5 6.6 6.7 6.5 6.2 6.3 6.1
5.2 5.5 5.6 5.7 6.0 6.0 6.1 6.2 6.0 5.9 6.4 6.0 5.8 5.6 5.5 5.5 6.0 5.9 6.0 6.1 5.9 6.4 6.6 6.5 6.3 6.5 6.3
5.5 5.5 5.7 5.8 6.1 6.2 6.1 6.1 6.0 6.0 6.1 6.1 6.3 6.3 5.7 5.4 5.5 6.2 6.0 6.0 6.0 6.1 6.5 6.5 6.5 6.5 6.5
5.5 5.5 5.7 5.9 5.8 5.9 5.9 6.0 6.0 5.9 5.7 5.9 6.0 5.8 6.0 6.1 6.0 5.7 5.9 5.9 6.0 6.0 6.3 6.4 6.5 6.5 6.5
Wind_Speed
14 16 18 17 16 21 24 25 24 31 33 33 34 35 35 36 36 36 36 35 35 35 36 36 35 35 35
17 14 17 18 17 18 14 22 21 26 31 33 35 35 35 35 35 35 34 33 34 32 33 34 36 36 35
16 13 14 12 15 17 15 15 17 27 30 30 33 34 33 33 33 34 33 33 32 34 34 34 35 35 36
13 15 12 15 13 12 13 12 13 14 22 25 29 30 30 33 33 32 32 32 32 33 33 33 34 33 35
12 13 14 13 14 13 13 14 14 13 13 12 12 14 16 24 26 29 29 29 31 32 32 33 33 34 34
13 15 18 15 14 13 13 14 15 11 13 17 12 14 14 13 27 30 31 32 31 31 32 32 32 33 34
17 16 17 16 15 16 16 15 14 14 14 17 13 15 13 14 29 31 32 32 31 30 30 31 32 33 33
15 17 15 15 15 15 16 18 15 13 13 15 14 15 13 13 31 31 29 27 27 29 30 31 32 32 33
24 27 26 26 20 11 11 11 15 13 13 11 11 15 15 16 12 21 24 31 30 29 30 30 30 31 25
16 17 17 17 20 12 9 11 12 12 9 9 12 10 8 10 10 14 12 24 28 29 29 29 28 13 12
13 12 12 12 10 11 10 9 12 12 17 11 10 12 8 11 13 12 12 12 14 16 24 27 27 23 11
10 11 11 11 10 11 14 13 12 15 18 15 9 12 13 14 15 11 15 14 12 13 12 18 27 29 30
10 10 10 11 13 12 13 14 15 15 13 15 12 14 12 13 15 16 15 12 13 11 14 12 11 10 10
9 10 11 10 10 10 10 11 11 12 13 13 12 13 12 13 12 15 13 11 14 12 13 12 9 8 6
10 11 11 10 11 10 10 10 11 12 13 11 12 13 11 16 13 12 12 12 11 13 14 11 9 5 4
10 10 11 11 11 11 10 9 10 12 12 11 12 12 10 10 13 9 9 10 12 13 12 10 6 2 4
10 10 10 10 13 10 10 10 11 10 11 11 11 10 11 12 9 9 8 11 10 10 10 10 7 7 4
Wind_Direction
301 307 300 296 302 305 304 292 287 297 297 298 295 293 292 292 290 287 286 285 282 279 279 278 274 270 266
298 298 301 301 305 293 298 302 296 295 297 297 294 294 294 291 289 286 284 280 280 280 278 276 272 271 270
294 298 298 304 302 310 297 297 300 301 299 297 294 294 292 290 288 287 285 285 284 282 279 276 274 272 272
292 297 298 313 300 304 307 303 302 301 296 291 291 290 289 290 289 286 285 283 281 280 278 275 273 269 268
292 307 305 304 310 314 302 304 300 302 299 291 305 294 287 286 284 284 283 282 281 279 276 274 270 268 266
302 294 301 309 307 306 302 308 304 305 310 296 297 291 286 285 287 290 289 287 284 281 277 274 271 267 264
297 297 298 303 304 300 307 298 296 297 297 292 295 290 292 289 291 291 290 288 287 284 280 276 272 269 263
297 296 296 292 296 301 301 297 290 292 296 291 301 293 296 296 294 293 291 288 286 284 282 281 279 273 266
298 293 297 300 298 299 293 301 297 300 303 285 298 304 301 292 286 290 295 299 293 288 288 284 278 272 270
301 307 300 299 298 291 294 292 294 305 300 308 306 311 306 290 297 295 288 293 295 294 296 293 286 274 262
308 306 306 302 305 304 295 285 287 280 285 307 300 298 280 299 301 296 294 293 300 295 290 287 285 280 263
306 300 302 303 300 299 293 284 273 271 284 285 276 285 288 292 293 297 305 301 296 295 291 281 278 275 275
299 298 299 299 297 293 292 288 284 280 277 276 271 279 277 281 285 294 302 304 300 301 305 296 290 278 273
301 299 298 302 300 300 299 300 296 299 296 283 275 281 284 280 286 292 296 299 307 310 308 301 296 283 253
303 303 302 303 302 303 297 298 297 302 306 307 300 287 282 280 288 284 294 302 312 314 315 312 311 300 270
301 298 301 302 302 304 302 298 300 305 308 310 313 317 309 294 254 284 293 306 317 319 323 324 316 332 288
301 299 298 301 306 301 304 302 306 304 307 313 312 314 316 314 302 278 291 315 318 322 331 332 315 320 304